Flag for U.S.A. Weather past 2 weeks in Burbank, California, U.S.A.

Now
54 °F

Overcast.


Feels Like: 54 °F
Forecast: 52 / 69 °F
Wind: No wind

Location: Burbank-Glendale-Pasadena Airport

Current Time: Jan 27, 2015 at 6:41:36 AM

Latest Report: Jan 27, 2015 at 5:53 AM


Visibility: 8 mi

Pressure: 30.13 "Hg

Humidity: 97%

Dew point: 53 °F

Location of BurbankLocation

Historic Weather in Burbank — Graph

°F

Burbank temperature yesterday

Maximum temperature yesterday: 75 °F (at 12:53 PM)
Minimum temperature yesterday: 54 °F (at 9:53 PM)
Average temperature yesterday: 62 °F

Past Weeks' High & Low Weather Summary

 TemperatureHumidityPressure
High81 °F (Jan 24, 2:53 PM)100% (Jan 12, 7:53 AM)30.26 "Hg (Jan 12, 7:53 AM)
Low44 °F (Jan 23, 6:53 AM)10% (Jan 22, 11:53 AM)29.88 "Hg (Jan 20, 1:53 PM)
Average60 °F48%30.08 "Hg
* Reported Jan 12 4:53 AM — Jan 27 4:53 AM, Burbank, Weather by CustomWeather, © 2014

Note: Actual official high and low records may vary slightly from our data, if they occured in-between our weather recording intervals... More about our weather records

Advertising

Burbank weather history for previous 24 hours

 ConditionsComfort  
Time TempWeatherWind HumidityBarometerVisibility
4:53 AM
Jan 27
54 °FOvercast.No wind93%30.10 "Hg9 mi
3:53 AM54 °FLight rain. Mostly cloudy.No wind97%30.10 "Hg7 mi
2:53 AM54 °FPassing clouds.No wind97%30.10 "Hg7 mi
1:53 AM54 °FPassing clouds.5 mph97%30.08 "Hg7 mi
12:53 AM55 °FOvercast.No wind93%30.08 "Hg10 mi
11:53 PM
Jan 26
55 °FOvercast.No wind93%30.08 "Hg10 mi
10:53 PM55 °FMostly cloudy.No wind87%30.08 "Hg10 mi
9:53 PM54 °FLight rain. Overcast.5 mph93%30.09 "Hg9 mi
8:53 PM55 °FLight rain. Mostly cloudy.3 mph93%30.06 "Hg10 mi
7:53 PM57 °FLight rain. Mostly cloudy.6 mph83%30.07 "Hg10 mi
6:53 PM57 °FLight rain. Mostly cloudy.No wind81%30.04 "Hg10 mi
5:53 PM57 °FLight rain. Overcast.3 mph81%30.03 "Hg10 mi
4:53 PM62 °FLight rain. Overcast.9 mph56%30.03 "Hg10 mi
3:53 PM67 °FOvercast.13 mph39%30.01 "Hg10 mi
2:53 PM72 °FOvercast.16 mph24%29.96 "Hg10 mi
1:53 PM74 °FPartly sunny.12 mph22%29.94 "Hg10 mi
12:53 PM75 °FSunny.10 mph22%29.95 "Hg10 mi
11:53 AM73 °FSunny.12 mph23%29.97 "Hg10 mi
10:53 AM71 °FSunny.5 mph28%29.99 "Hg10 mi
9:53 AMN/A6 mphN/A30.03 "HgN/A
8:53 AM68 °FOvercast.5 mph27%29.98 "Hg10 mi
7:53 AM62 °FPartly sunny.5 mph39%29.98 "Hg10 mi
6:53 AM59 °FPassing clouds.No wind48%29.97 "Hg10 mi
Weather by CustomWeather, © 2014

See weather overviewHow to use our weather pages